User: anonymous   Login
Location: Dalton
(34.7700°N, 84.9700°W)
Time: 07:29:23
(UTC-04:00)
Language:

ISS - Orbit

View from above orbital plane
View from above orbital plane
View from above satellite
View from above satellite

Ground track
Ground track

The orbit data is extracted from the following two-line orbital elements,

1 25544U 98067A   17298.37424668  .00016717  00000-0  10270-3 0  9059
2 25544  51.6391 109.3298 0005272  50.8004 309.3617 15.54224730  1993
Epoch (UTC): 25 October 2017 08:58:54
Eccentricity: 0.0005272
inclination: 51.6391°
perigee height: 401 km
apogee height: 408 km
right ascension of ascending node: 109.3298°
argument of perigee: 50.8004°
revolutions per day: 15.54224730
mean anomaly at epoch: 309.3617°
orbit number at epoch: 199

The dashed part of the orbit path shows where the satellite is in the earth's shadow,  

DLR